Location: Malvern Link
(52.1333°N, 2.3000°W)
Time: 16:37:57
(UTC+00:00)

Cosmos 1634 Rocket - Pass Details

Date: 05 December 2021
Orbit: 959 x 993 km, 82.9° (Epoch: 23 January)

Event Time Altitude Azimuth Distance (km) Brightness Sun altitude
Exits shadow 06:15:22 16° 319° (NW) 2,333 5.5 -15.2°
Maximum altitude 06:18:44 25° 279° (W) 1,877 4.9 -14.7°
Drops below altitude 10° 06:23:36 10° 227° (SW) 2,717 6.1 -14.0°
Sets 06:26:32 0° 214° (SW) 3,654 6.8 -13.6°
